Time,TemperatureF,DewpointF,PressureIn,WindDirection,WindDirectionDegrees,WindSpeedMPH,WindSpeedGustMPH,Humidity,HourlyPrecipIn,Conditions,Clouds,dailyrainin,SolarRadiationWatts/m^2,SoftwareType,DateUTC
2013-08-19 08:52:00,76.0,65.0,-100.00,East,84,5.0,7.0,68,0.00,,,0.17,22.000000,,2013-08-19 12:52:00,
2013-08-19 09:03:00,76.0,65.0,-100.00,East,84,5.0,7.0,68,0.00,,,0.17,22.000000,,2013-08-19 13:03:00,
2013-08-19 09:13:00,76.0,65.0,-100.00,East,84,5.0,7.0,68,0.00,,,0.17,22.000000,,2013-08-19 13:13:00,
2013-08-19 09:22:00,76.0,65.0,-100.00,East,84,5.0,7.0,68,0.00,,,0.17,22.000000,,2013-08-19 13:22:00,
2013-08-19 09:52:00,76.0,65.0,-100.00,East,89,6.0,8.0,68,0.02,,,0.19,68.000000,,2013-08-19 13:52:00,
2013-08-19 10:02:00,76.0,65.0,-100.00,East,89,6.0,8.0,68,0.02,,,0.19,68.000000,,2013-08-19 14:02:00,
2013-08-19 12:25:00,77.0,-99.9,-100.00,ENE,74,7.0,9.0,66,0.00,,,0.20,187.000000,,2013-08-19 16:25:00,
2013-08-19 13:25:00,79.0,66.0,-100.00,ENE,72,7.0,9.0,64,0.00,,,0.20,394.000000,,2013-08-19 17:25:00,
2013-08-19 13:57:00,79.0,66.0,-100.00,ENE,72,7.0,9.0,64,0.00,,,0.20,394.000000,,2013-08-19 17:57:00,
2013-08-19 14:05:00,79.0,66.0,-100.00,ENE,72,7.0,9.0,64,0.00,,,0.20,394.000000,,2013-08-19 18:05:00,
2013-08-19 14:19:00,79.0,66.0,-100.00,ENE,72,7.0,9.0,64,0.00,,,0.20,394.000000,,2013-08-19 18:19:00,
2013-08-19 14:25:00,-999.0,-99.9,-100.00,ENE,68,8.0,11.0,65,0.00,,,0.19,324.000000,,2013-08-19 18:25:00,
2013-08-19 14:50:00,-999.0,-99.9,-100.00,ENE,68,8.0,11.0,65,0.00,,,0.19,324.000000,,2013-08-19 18:50:00,
2013-08-19 15:00:00,-999.0,-99.9,-100.00,ENE,68,8.0,11.0,65,0.00,,,0.19,324.000000,,2013-08-19 19:00:00,
2013-08-19 15:07:00,78.0,65.0,-100.00,ENE,68,8.0,11.0,65,0.00,,,0.19,324.000000,,2013-08-19 19:07:00,
2013-08-19 15:16:00,78.0,65.0,-100.00,ENE,68,8.0,11.0,65,0.00,,,0.19,324.000000,,2013-08-19 19:16:00,
2013-08-19 15:25:00,77.0,-99.9,-100.00,ENE,68,12.0,16.0,65,0.00,,,0.03,157.000000,,2013-08-19 19:25:00,
2013-08-19 16:20:00,77.0,64.0,-100.00,ENE,68,12.0,16.0,65,0.00,,,0.03,157.000000,,2013-08-19 20:20:00,
2013-08-19 17:00:00,-999.0,-99.9,-100.00,ENE,65,4.0,15.0,-999,-99.99,,,-99.99,29.000000,,2013-08-19 21:00:00,
2013-08-19 22:52:00,76.0,63.0,-100.00,ENE,72,4.0,9.0,65,0.00,,,1.95,0.000000,,2013-08-20 02:52:00,
2013-08-19 23:02:00,76.0,63.0,-100.00,ENE,72,4.0,9.0,65,0.00,,,1.95,0.000000,,2013-08-20 03:02:00,
2013-08-19 23:11:00,76.0,63.0,-100.00,ENE,72,4.0,9.0,65,0.00,,,1.95,0.000000,,2013-08-20 03:11:00,
2013-08-19 23:22:00,76.0,63.0,-100.00,ENE,72,4.0,9.0,65,0.00,,,1.95,0.000000,,2013-08-20 03:22:00,